Temperature
2 1 1 1 1 1 1 2 3 4 2 2 1 -0 -1 -2 -3 -4 -4 -4 -3 -3 -3 -2 -2 -1 -1 -1 -1 -1 -1 -1 -1 -0 -0 -1 -1 -1 -1 -1 -1 -1 -1 -1
0 0 0 0 0 0 0 1 1 1 1 1 -1 -2 -2 -3 -4 -4 -4 -4 -4 -3 -3 -3 -2 -2 -2 -2 -1 -1 -1 -1 -1 -1 -1 -1 -1 -1 -2 -2 -2 -2 -2 -2
1 -0 -0 1 1 -0 -0 -1 0 1 1 -1 -2 -2 -3 -4 -4 -5 -5 -5 -4 -4 -3 -3 -3 -2 -2 -2 -2 -2 -2 -2 -2 -2 -2 -2 -2 -2 -2 -2 -2 -3 -3 -3
0 -0 0 2 -1 -1 -1 -1 -2 -1 -1 -2 -2 -4 -4 -4 -5 -5 -5 -5 -5 -4 -4 -3 -3 -3 -3 -3 -3 -3 -3 -3 -2 -2 -2 -3 -3 -3 -3 -3 -3 -3 -4 -4
-0 0 1 1 -2 -2 -2 -2 -2 -2 -2 -3 -5 -4 -4 -4 -5 -5 -5 -5 -5 -4 -4 -4 -4 -4 -4 -4 -4 -4 -3 -3 -3 -3 -3 -3 -4 -4 -4 -4 -4 -4 -5 -5
-1 -0 1 1 -2 -4 -2 -1 -2 -3 -3 -4 -5 -2 -2 -5 -5 -6 -5 -5 -5 -5 -5 -4 -4 -4 -4 -4 -4 -4 -4 -4 -4 -4 -4 -4 -4 -4 -5 -5 -5 -5 -5 -6
-1 -1 0 -2 -4 -3 -1 0 -3 -4 -4 -5 -5 -4 -5 -6 -6 -6 -6 -6 -5 -5 -5 -5 -5 -5 -5 -5 -5 -5 -5 -5 -5 -5 -5 -5 -5 -5 -5 -6 -6 -6 -6 -7
-2 -1 -0 -4 -4 -3 -2 -4 -4 -5 -5 -5 -6 -6 -6 -6 -6 -6 -6 -6 -6 -6 -6 -6 -6 -6 -6 -6 -6 -5 -5 -6 -6 -6 -6 -6 -6 -6 -6 -6 -7 -7 -7 -7
-2 -1 -3 -5 -5 -4 -5 -5 -5 -5 -6 -6 -7 -7 -7 -7 -7 -7 -7 -7 -7 -6 -6 -6 -6 -6 -6 -6 -6 -6 -6 -6 -6 -7 -7 -7 -7 -7 -7 -7 -8 -8 -8 -8
-5 -4 -5 -5 -5 -5 -6 -6 -6 -6 -6 -7 -7 -7 -7 -8 -8 -8 -7 -7 -7 -7 -7 -7 -7 -7 -7 -7 -7 -7 -7 -7 -7 -7 -8 -8 -8 -8 -8 -8 -8 -9 -9 -9
-5 -5 -6 -6 -6 -6 -6 -6 -6 -6 -7 -7 -7 -8 -8 -8 -8 -8 -8 -8 -8 -8 -8 -8 -8 -8 -8 -8 -8 -8 -8 -8 -8 -8 -8 -8 -9 -9 -9 -9 -9 -9 -9 -9
-3 -4 -5 -5 -5 -6 -6 -7 -7 -7 -7 -8 -8 -8 -8 -8 -9 -9 -8 -9 -9 -9 -9 -9 -9 -9 -9 -9 -9 -9 -9 -9 -9 -9 -9 -9 -9 -9 -9 -10 -10 -10 -10 -10
-6 -6 -6 -6 -6 -6 -7 -7 -7 -8 -8 -8 -8 -8 -9 -9 -9 -9 -9 -9 -9 -9 -10 -10 -10 -10 -10 -10 -9 -9 -9 -10 -10 -10 -10 -10 -10 -10 -10 -10 -10 -10 -11 -11
-7 -7 -7 -7 -7 -7 -7 -8 -8 -8 -8 -9 -9 -9 -9 -9 -9 -10 -10 -10 -10 -10 -10 -10 -10 -10 -10 -10 -10 -10 -10 -10 -10 -10 -11 -11 -11 -11 -11 -11 -11 -11 -11 -11
-7 -7 -8 -8 -8 -8 -8 -9 -9 -9 -9 -9 -10 -10 -10 -10 -10 -10 -10 -10 -10 -11 -11 -11 -11 -11 -11 -11 -11 -11 -11 -11 -11 -11 -11 -11 -11 -11 -11 -11 -12 -12 -11 -11
-8 -8 -9 -9 -9 -9 -9 -9 -9 -10 -10 -10 -10 -10 -10 -10 -10 -10 -11 -11 -11 -11 -11 -11 -11 -11 -11 -11 -11 -11 -11 -11 -11 -12 -12 -12 -12 -12 -12 -12 -12 -12 -12 -12
-9 -9 -9 -9 -9 -9 -9 -10 -10 -10 -10 -10 -10 -10 -10 -10 -11 -11 -11 -11 -11 -11 -11 -12 -12 -12 -12 -12 -12 -12 -12 -12 -12 -12 -12 -12 -12 -12 -12 -12 -12 -12 -12 -12
-9 -9 -9 -9 -9 -10 -10 -10 -10 -10 -10 -10 -10 -10 -11 -11 -11 -11 -11 -12 -12 -12 -12 -12 -12 -12 -12 -12 -12 -12 -12 -12 -12 -12 -13 -13 -13 -13 -13 -13 -13 -13 -13 -13
-9 -9 -9 -10 -10 -10 -10 -10 -10 -10 -11 -11 -11 -11 -11 -11 -11 -12 -12 -12 -12 -12 -12 -12 -12 -12 -12 -12 -12 -12 -13 -13 -13 -13 -13 -13 -13 -13 -13 -13 -13 -13 -13 -13
-9 -10 -10 -10 -10 -10 -10 -10 -10 -11 -11 -11 -11 -11 -11 -12 -12 -12 -12 -12 -12 -12 -13 -13 -13 -13 -13 -13 -13 -13 -13 -13 -13 -13 -13 -13 -13 -14 -14 -14 -14 -14 -14 -14
-10 -10 -10 -10 -10 -10 -10 -11 -11 -11 -11 -11 -12 -12 -12 -12 -12 -12 -13 -13 -13 -13 -13 -13 -13 -13 -13 -13 -13 -13 -13 -13 -14 -14 -14 -14 -14 -14 -14 -14 -14 -14 -15 -15
-10 -10 -11 -11 -11 -11 -11 -11 -11 -11 -11 -12 -12 -12 -12 -13 -13 -13 -13 -13 -13 -13 -13 -13 -13 -13 -13 -13 -14 -14 -14 -14 -14 -14 -14 -14 -15 -15 -15 -15 -15 -15 -15 -15
-11 -11 -11 -11 -11 -11 -11 -12 -12 -12 -12 -12 -12 -13 -13 -13 -13 -13 -13 -13 -13 -13 -13 -14 -14 -14 -14 -14 -14 -14 -14 -14 -15 -15 -15 -15 -15 -15 -15 -15 -15 -15 -15 -16
-11 -11 -11 -11 -12 -12 -12 -12 -12 -12 -13 -13 -13 -13 -13 -13 -13 -13 -13 -14 -14 -14 -14 -14 -14 -14 -14 -14 -14 -15 -15 -15 -15 -15 -15 -16 -16 -16 -16 -16 -16 -16 -16 -16
-12 -12 -12 -12 -12 -12 -12 -13 -13 -13 -13 -13 -13 -13 -13 -13 -14 -14 -14 -14 -14 -14 -14 -14 -14 -14 -15 -15 -15 -15 -15 -15 -16 -16 -16 -16 -16 -16 -16 -16 -16 -16 -16 -16
-12 -12 -12 -12 -12 -12 -13 -13 -13 -13 -13 -13 -14 -14 -14 -14 -14 -14 -14 -14 -14 -14 -15 -15 -15 -15 -15 -15 -15 -15 -16 -16 -16 -16 -16 -16 -16 -16 -17 -17 -17 -17 -17 -17
-12 -12 -13 -13 -13 -13 -13 -13 -13 -14 -14 -14 -14 -14 -14 -14 -14 -14 -14 -15 -15 -15 -15 -15 -15 -15 -15 -16 -16 -16 -16 -16 -16 -16 -16 -16 -17 -17 -17 -17 -17 -17 -17 -17
Wind_Speed
8 7 5 7 9 10 12 11 11 10 9 9 5 6 6 5 4 5 5 4 3 3 3 3 2 2 1 1 1 2 3 3 3 3 3 4 4 4 4 4 4 5 5 5
6 6 5 8 10 11 12 12 12 12 11 6 5 4 5 4 4 4 5 5 5 4 3 3 3 2 1 0 1 2 2 2 2 3 3 4 4 4 4 4 4 4 5 5
5 4 5 9 9 11 8 8 8 10 8 3 5 5 6 5 4 5 6 5 5 4 4 3 2 2 1 0 1 2 2 2 2 2 3 3 4 4 4 4 4 4 4 4
3 3 7 3 1 5 8 8 9 7 5 5 6 6 6 4 4 5 5 5 5 4 4 3 2 1 1 1 1 2 2 2 2 2 2 3 4 4 4 4 4 4 4 4
3 5 8 3 1 3 5 7 7 8 6 5 4 4 3 1 3 4 5 5 4 4 3 3 1 1 1 1 2 2 2 1 2 2 2 3 3 3 3 4 3 3 3 3
4 5 6 2 0 1 2 6 3 5 5 3 2 4 3 2 4 4 4 3 3 2 2 1 1 1 1 2 2 1 1 1 1 2 3 3 2 3 3 3 3 3 2 3
6 6 6 2 0 2 4 4 1 4 4 4 5 5 3 3 4 4 3 3 2 1 1 1 1 1 1 1 1 1 1 2 2 2 2 2 2 2 3 3 3 3 3 2
5 6 6 2 4 5 4 2 1 3 3 4 4 3 2 2 3 3 3 2 2 2 2 2 1 1 2 1 1 2 2 2 2 2 2 2 3 2 3 3 4 3 3 2
6 5 2 4 4 3 2 2 2 2 3 3 2 2 2 2 2 2 2 2 1 1 1 2 2 1 2 1 2 2 3 3 2 3 2 2 2 3 3 3 3 3 3 2
5 7 6 5 5 4 3 4 3 3 2 3 3 2 2 2 1 1 1 1 1 1 1 2 2 2 1 2 2 3 3 3 3 3 2 2 2 2 2 2 2 2 2 2
7 7 5 5 6 5 4 3 2 2 2 2 2 2 2 2 1 1 1 1 1 1 1 1 1 2 2 2 2 3 3 3 2 2 2 2 2 1 1 1 2 2 2 2
7 4 4 5 3 3 3 3 2 1 1 2 2 2 2 1 1 0 0 0 1 1 1 1 1 1 2 1 2 2 2 2 2 2 2 2 2 2 2 1 1 1 1 1
5 3 4 4 4 3 3 3 2 2 2 2 1 1 1 1 1 0 1 0 0 0 1 1 1 1 1 1 1 2 2 2 2 2 2 1 1 1 1 1 1 0 1 1
4 3 4 4 4 2 2 1 1 1 0 1 1 1 1 1 1 1 1 0 0 1 1 1 1 1 1 1 1 2 2 2 1 1 1 1 1 1 1 0 0 0 1 1
4 4 4 2 1 1 0 1 1 1 0 0 1 1 1 2 1 1 0 1 1 1 1 1 1 1 1 1 1 1 1 1 1 1 1 1 1 1 1 0 0 1 0 1
2 2 2 2 2 1 1 2 2 2 1 1 1 1 1 1 1 1 1 1 2 1 0 0 0 1 1 1 1 1 1 1 1 1 1 1 1 1 0 0 0 1 1 1
3 3 3 3 3 3 3 3 3 3 2 2 2 1 2 2 2 2 1 1 1 0 0 0 1 1 1 1 1 1 1 1 1 1 0 0 0 0 0 0 1 1 2 2
4 4 4 4 4 4 4 3 2 2 3 2 2 2 2 2 2 1 1 1 1 1 1 1 1 1 1 1 1 0 0 0 0 0 0 0 0 1 1 1 1 2 2 2
2 2 2 3 3 3 3 3 3 2 2 3 3 3 2 2 1 2 2 2 1 0 1 1 0 0 0 1 1 1 1 1 0 0 0 1 1 1 1 1 2 2 2 2
1 1 1 1 1 2 3 3 3 3 3 3 3 3 2 1 1 2 2 1 1 1 1 0 0 0 0 1 1 1 1 1 1 1 1 1 1 1 2 2 2 2 2 3
1 1 1 1 1 1 2 3 4 3 3 3 3 3 2 2 2 2 2 1 0 0 0 0 0 0 0 1 1 1 1 1 1 1 1 2 2 2 2 2 3 3 3 3
2 2 2 2 1 1 1 2 3 3 3 3 3 3 3 2 2 1 1 1 1 1 0 0 1 1 1 1 1 1 1 1 1 1 2 2 2 2 3 3 3 3 4 4
1 2 2 2 2 2 2 2 2 3 3 3 3 3 3 2 2 1 1 0 1 1 0 1 1 1 1 1 1 1 1 1 2 2 2 2 3 3 3 4 4 4 4 4
1 1 1 2 2 3 2 2 2 2 2 2 2 2 2 2 1 1 1 1 1 1 1 1 1 1 1 0 1 1 1 2 2 2 3 3 3 3 4 4 4 5 5 6
1 2 2 3 3 2 2 2 2 2 2 2 1 1 1 1 1 1 0 1 1 1 1 1 2 2 1 0 1 1 2 2 3 3 3 3 4 4 4 4 5 5 5 6
1 1 2 2 2 2 2 2 2 2 2 2 1 1 1 1 1 1 0 1 1 1 1 1 1 1 1 1 2 2 2 3 3 3 4 4 5 5 5 5 7 6 6 6
1 1 1 1 1 2 2 2 2 2 2 2 1 1 1 1 1 1 1 0 0 0 1 1 1 1 1 2 2 3 3 3 3 4 4 4 5 5 6 7 6 6 7 7
Wind_Direction
263 273 264 259 250 229 224 234 245 255 255 268 273 280 295 304 308 319 326 330 329 324 323 321 319 311 293 255 177 164 166 170 179 173 167 163 160 166 165 168 174 172 170 175
262 251 258 267 259 241 239 243 247 262 265 275 289 287 293 294 295 306 313 318 321 320 321 317 315 312 304 300 152 153 157 165 161 156 156 158 161 160 159 163 167 170 175 176
257 276 277 262 243 224 227 226 227 241 253 272 284 285 286 282 283 294 303 306 311 309 303 303 299 292 278 299 127 139 141 143 147 148 157 156 153 156 161 164 164 169 173 179
261 265 244 250 126 212 224 236 223 244 267 266 277 291 284 264 282 299 303 303 302 305 307 312 311 318 355 96 124 133 135 136 138 139 145 154 156 160 163 163 168 171 177 184
227 247 264 260 209 207 226 256 227 240 265 286 313 299 258 242 300 298 299 297 296 298 298 307 318 355 87 98 113 123 130 136 149 148 144 150 164 168 168 166 164 168 176 180
221 243 251 276 178 258 215 260 216 225 244 259 271 261 274 316 314 314 317 316 314 316 316 317 346 61 106 107 109 112 109 127 144 146 151 156 157 161 159 158 157 158 170 183
232 245 262 296 201 177 222 282 307 223 225 217 231 267 298 301 307 314 320 329 338 342 340 341 23 96 112 104 96 84 88 100 110 121 132 135 131 136 144 149 150 158 167 177
216 232 252 139 147 198 261 341 254 228 227 231 254 297 299 297 303 316 339 357 11 18 13 14 40 98 103 81 59 77 97 105 106 106 110 123 130 130 137 148 153 159 164 172
213 234 320 169 210 265 316 281 280 259 253 231 243 265 280 291 299 313 335 351 3 35 45 27 27 69 88 58 62 85 100 104 103 99 99 118 134 136 139 149 162 167 171 179
254 263 268 253 264 289 291 286 288 266 242 222 231 242 259 276 291 309 325 343 2 78 73 34 22 34 56 58 78 93 99 101 105 109 106 107 121 136 144 156 165 173 181 189
250 271 286 265 258 271 281 293 295 288 260 231 224 247 253 264 268 274 346 14 83 106 92 42 29 30 37 59 89 98 98 97 99 99 101 103 107 119 144 173 176 181 202 204
242 244 244 274 286 269 254 261 255 254 268 253 226 227 241 248 251 222 117 87 96 94 88 58 45 31 30 48 98 112 107 102 102 100 102 109 110 96 86 101 79 205 220 219
253 280 268 285 295 275 255 253 238 226 221 231 237 208 199 216 212 150 126 133 164 156 115 93 70 39 26 37 98 116 117 114 112 110 112 118 122 120 97 71 62 18 280 240
256 268 270 271 281 284 271 258 223 220 234 215 181 155 147 132 133 147 175 191 117 95 93 92 78 34 24 52 99 109 113 115 117 119 115 116 122 125 133 155 255 315 304 288
256 249 255 279 310 304 252 160 148 162 138 70 105 137 144 150 167 181 143 107 106 101 92 85 59 6 34 80 104 109 117 121 115 110 109 109 106 102 92 111 260 282 305 307
264 249 232 235 239 230 208 193 196 211 206 201 184 182 173 156 143 126 112 118 127 133 119 99 354 3 54 96 115 118 119 114 111 115 117 117 119 119 116 36 296 290 288 306
201 225 224 233 232 229 223 224 217 209 202 202 203 172 136 117 109 103 97 103 121 153 106 346 338 28 63 102 139 135 115 114 103 108 121 139 157 202 247 265 280 297 296 289
237 241 227 224 220 220 225 224 211 196 194 195 168 147 142 144 149 145 128 101 79 47 8 341 5 60 87 111 139 142 141 141 137 167 178 204 243 251 255 263 273 284 299 304
243 239 230 222 216 208 209 207 200 188 173 158 156 158 158 154 150 142 129 124 120 51 344 339 348 99 121 154 137 150 155 157 159 205 241 255 274 262 260 264 272 280 286 292
236 221 208 210 201 193 195 191 176 167 159 153 149 144 140 138 132 132 135 151 198 251 294 324 268 228 177 175 155 167 178 194 215 245 264 267 270 270 270 271 274 277 279 278
214 199 192 191 195 190 182 173 165 162 156 155 157 160 159 150 144 146 149 169 348 309 253 282 317 281 225 162 166 184 205 227 243 257 265 267 268 269 270 273 274 273 275 276
213 200 198 187 171 163 153 154 154 153 149 150 150 148 146 149 152 158 191 226 268 279 326 267 281 262 228 172 169 194 220 242 257 261 261 263 265 269 271 274 274 276 277 278
210 198 186 177 172 155 129 136 146 150 154 160 162 165 167 168 172 172 209 226 235 269 309 272 283 269 269 159 171 203 230 245 255 259 261 264 265 267 270 273 274 275 276 277
185 175 168 157 148 144 143 144 138 140 144 156 166 171 169 164 174 210 239 227 250 282 283 274 294 308 324 139 218 243 251 257 261 264 265 265 266 267 269 272 274 276 275 275
168 159 156 157 160 165 158 143 132 133 133 137 141 150 168 189 193 194 204 241 246 269 277 284 305 329 354 299 267 268 270 268 270 269 264 265 267 269 271 271 271 273 274 274
160 166 174 182 178 165 158 157 156 155 151 149 143 141 133 133 140 142 163 218 253 264 299 303 320 332 323 297 283 280 279 282 286 283 273 271 270 270 270 270 272 272 273 273
132 133 138 138 149 160 162 164 165 169 171 169 161 154 146 144 143 144 154 177 241 313 312 308 311 306 297 293 290 286 282 279 276 274 273 271 270 269 271 272 273 274 274 273
Height
1475 1475 1476 1475 1474 1475 1473 1466 1461 1455 1460 1459 1463 1465 1464 1463 1462 1461 1459 1457 1456 1455 1454 1454 1454 1454 1454 1455 1456 1457 1458 1459 1461 1463 1464 1466 1467 1469 1471 1472 1474 1475 1477 1479
1477 1475 1475 1474 1471 1471 1470 1468 1464 1462 1460 1461 1463 1464 1463 1461 1460 1459 1457 1456 1454 1453 1452 1452 1452 1452 1452 1452 1453 1454 1455 1457 1458 1460 1461 1463 1464 1466 1468 1469 1471 1472 1474 1475
1469 1474 1473 1464 1462 1465 1465 1464 1463 1459 1458 1461 1461 1461 1460 1459 1458 1457 1456 1454 1452 1451 1451 1451 1451 1451 1451 1451 1451 1452 1453 1454 1456 1457 1458 1460 1461 1463 1464 1466 1467 1469 1470 1472
1472 1473 1467 1456 1463 1462 1462 1461 1462 1460 1459 1460 1459 1459 1458 1457 1456 1455 1454 1452 1451 1450 1449 1449 1449 1450 1450 1450 1450 1450 1451 1452 1453 1454 1456 1457 1459 1460 1461 1463 1464 1465 1467 1469
1472 1465 1455 1457 1462 1463 1463 1458 1458 1458 1458 1458 1458 1456 1455 1455 1454 1454 1452 1451 1449 1448 1448 1447 1448 1448 1448 1448 1448 1449 1449 1450 1451 1452 1453 1454 1456 1457 1458 1460 1461 1462 1464 1465
1471 1464 1454 1452 1460 1461 1462 1454 1453 1455 1456 1457 1457 1453 1451 1452 1451 1451 1450 1448 1447 1446 1446 1446 1446 1446 1446 1446 1447 1447 1448 1448 1449 1450 1451 1452 1453 1454 1455 1456 1458 1459 1461 1463
1468 1463 1454 1458 1460 1461 1457 1449 1452 1452 1453 1454 1454 1453 1452 1450 1449 1449 1447 1446 1445 1445 1445 1445 1445 1445 1445 1445 1445 1446 1446 1447 1447 1448 1449 1450 1451 1452 1453 1454 1456 1457 1459 1460
1467 1462 1456 1459 1459 1458 1453 1452 1451 1451 1451 1451 1451 1450 1450 1449 1448 1446 1445 1444 1443 1443 1443 1443 1443 1443 1443 1444 1444 1444 1445 1445 1446 1447 1448 1449 1449 1450 1451 1452 1453 1455 1456 1457
1462 1457 1456 1456 1454 1453 1452 1451 1450 1450 1449 1449 1448 1448 1448 1447 1446 1444 1443 1443 1442 1442 1441 1442 1442 1442 1442 1443 1443 1443 1444 1444 1445 1445 1446 1447 1448 1448 1449 1450 1451 1452 1453 1454
1461 1454 1454 1453 1452 1451 1450 1450 1449 1448 1447 1447 1446 1446 1446 1445 1444 1443 1442 1441 1441 1440 1440 1440 1440 1440 1441 1442 1442 1442 1442 1443 1443 1444 1445 1445 1446 1447 1447 1448 1449 1450 1451 1452
1457 1452 1451 1449 1448 1448 1448 1447 1446 1446 1445 1445 1444 1444 1443 1443 1442 1441 1440 1439 1439 1439 1439 1439 1440 1440 1440 1441 1441 1441 1441 1441 1442 1443 1443 1444 1445 1445 1446 1447 1448 1449 1450 1450
1447 1447 1448 1446 1445 1445 1445 1444 1444 1443 1443 1443 1443 1442 1442 1441 1440 1440 1439 1438 1438 1438 1438 1438 1439 1439 1439 1440 1440 1440 1440 1440 1441 1441 1442 1443 1443 1444 1445 1446 1446 1447 1448 1448
1445 1444 1444 1443 1443 1442 1442 1442 1441 1441 1441 1440 1440 1440 1440 1439 1439 1438 1438 1437 1437 1437 1437 1438 1438 1438 1438 1439 1439 1439 1439 1440 1440 1441 1441 1442 1442 1442 1443 1444 1445 1445 1446 1446
1442 1442 1442 1441 1441 1440 1439 1439 1439 1439 1439 1438 1438 1438 1438 1437 1437 1437 1437 1437 1437 1437 1437 1437 1437 1437 1438 1438 1438 1438 1439 1439 1439 1440 1440 1441 1441 1441 1442 1442 1442 1443 1444 1444
1439 1439 1439 1438 1438 1437 1437 1437 1436 1436 1436 1436 1436 1436 1436 1435 1435 1436 1436 1436 1436 1436 1436 1436 1436 1437 1437 1437 1437 1438 1438 1438 1439 1439 1439 1440 1440 1440 1440 1441 1441 1441 1441 1441
1436 1436 1436 1435 1435 1434 1434 1434 1434 1434 1434 1434 1434 1434 1434 1434 1434 1434 1435 1435 1435 1435 1435 1435 1435 1436 1436 1436 1437 1437 1437 1438 1438 1438 1438 1439 1439 1439 1439 1439 1439 1439 1439 1439
1433 1432 1432 1432 1432 1432 1432 1432 1432 1432 1432 1432 1432 1433 1433 1433 1433 1433 1434 1434 1435 1435 1435 1435 1435 1436 1436 1436 1436 1436 1436 1437 1437 1437 1437 1438 1438 1438 1438 1438 1437 1437 1437 1437
1430 1430 1430 1429 1429 1429 1430 1430 1430 1430 1431 1431 1431 1432 1432 1432 1432 1432 1433 1434 1434 1434 1435 1435 1435 1435 1435 1435 1435 1435 1435 1436 1436 1436 1436 1436 1436 1436 1436 1436 1436 1435 1435 1434
1427 1427 1427 1427 1428 1428 1428 1428 1428 1429 1429 1430 1430 1430 1431 1431 1432 1432 1432 1433 1433 1433 1434 1434 1434 1434 1434 1434 1434 1434 1434 1435 1435 1435 1435 1435 1435 1434 1434 1434 1433 1432 1432 1431
1425 1425 1425 1425 1425 1426 1426 1426 1426 1427 1428 1428 1429 1429 1430 1430 1431 1431 1432 1432 1432 1433 1433 1433 1433 1433 1433 1433 1433 1433 1433 1433 1433 1433 1433 1433 1432 1432 1431 1431 1430 1429 1429 1428
1423 1423 1423 1423 1423 1423 1424 1424 1425 1425 1426 1427 1428 1428 1429 1429 1430 1430 1430 1431 1432 1432 1432 1432 1432 1432 1432 1432 1432 1432 1432 1432 1431 1431 1431 1430 1430 1429 1429 1428 1427 1426 1425 1424
1422 1421 1421 1421 1422 1422 1422 1423 1423 1424 1425 1425 1426 1427 1427 1428 1429 1429 1430 1430 1431 1431 1431 1431 1431 1431 1431 1431 1430 1430 1430 1430 1429 1429 1428 1428 1427 1426 1426 1425 1424 1423 1422 1421
1420 1420 1420 1420 1420 1421 1421 1422 1423 1423 1424 1424 1425 1426 1426 1427 1428 1428 1429 1429 1429 1430 1430 1430 1430 1430 1429 1429 1428 1428 1428 1427 1427 1426 1426 1425 1424 1423 1422 1421 1420 1419 1418 1416
1418 1418 1418 1419 1419 1420 1420 1421 1421 1422 1423 1424 1425 1425 1426 1426 1427 1427 1428 1428 1428 1428 1428 1428 1428 1428 1427 1427 1426 1426 1425 1425 1424 1423 1422 1421 1420 1419 1418 1417 1416 1414 1413 1412
1416 1416 1417 1417 1418 1418 1419 1420 1420 1421 1422 1423 1423 1424 1425 1425 1426 1426 1426 1427 1427 1426 1426 1426 1426 1425 1425 1424 1424 1423 1422 1422 1421 1420 1419 1417 1416 1415 1414 1413 1411 1410 1408 1407
1415 1415 1416 1416 1417 1418 1418 1419 1419 1420 1421 1422 1422 1423 1424 1424 1424 1425 1425 1425 1425 1425 1424 1424 1423 1423 1422 1422 1421 1420 1420 1419 1418 1416 1415 1414 1412 1411 1410 1408 1407 1405 1403 1402
1414 1415 1415 1415 1416 1417 1417 1418 1419 1419 1420 1421 1421 1422 1422 1423 1423 1423 1423 1423 1423 1422 1422 1422 1421 1420 1420 1419 1418 1417 1416 1415 1414 1413 1411 1410 1408 1407 1405 1403 1402 1400 1398 1396